{"data":{"norad_id":63459,"epoch":"2026-05-24T23:40:29.038080Z","epoch_age_seconds":79280,"freshness":"FRESH","line1":"1 63459U 25069AC  26144.98644720  .00037384  00000+0  86345-3 0  9999","line2":"2 63459  53.1592 145.4014 0001868  83.2811 276.8407 15.42190246 65019","mean_motion":15.42190246,"eccentricity":0.0001868,"inclination_deg":53.1592,"raan_deg":145.4014,"arg_perigee_deg":83.2811,"mean_anomaly_deg":276.8407,"bstar":0.00086345,"rev_number":6501,"period_min":93.373693922326,"perigee_km":438.3729483686,"apogee_km":440.92007228806,"semimajor_km":6817.7835103283,"source":"CELESTRAK","updated_at":"2026-05-25T13:38:20.003797Z"}}